Hourly Weather Otwock

Today, 30 July, Friday

Time Temperature Precipitation Wind Pressure Humidity
00:00 +20°C° 0 mm 2 mps 748 mmHg 64%
01:00 +20°C° 0 mm 2 mps 748 mmHg 64%
02:00 +19°C° 0 mm 2 mps 748 mmHg 65%
03:00 +19°C° 0 mm 2 mps 748 mmHg 66%
04:00 +19°C° 0 mm 2 mps 748 mmHg 67%
05:00 +20°C° 0 mm 2 mps 748 mmHg 64%
06:00 +21°C° 0 mm 3 mps 748 mmHg 62%
07:00 +22°C° 0 mm 3 mps 748 mmHg 59%
08:00 +23°C° 0 mm 4 mps 748 mmHg 54%
09:00 +25°C° 0 mm 4 mps 748 mmHg 49%
10:00 +26°C° 0 mm 5 mps 748 mmHg 44%
11:00 +27°C° 0 mm 5 mps 748 mmHg 43%
12:00 +27°C° 0 mm 6 mps 747 mmHg 42%
13:00 +28°C° 0 mm 6 mps 747 mmHg 40%
14:00 +28°C° 0 mm 6 mps 747 mmHg 42%
15:00 +27°C° 0 mm 5 mps 747 mmHg 44%
16:00 +27°C° 0 mm 5 mps 746 mmHg 45%
17:00 +26°C° 0 mm 4 mps 746 mmHg 50%
18:00 +25°C° 0 mm 3 mps 746 mmHg 54%
19:00 +24°C° 0 mm 2 mps 746 mmHg 59%
20:00 +23°C° 0 mm 2 mps 746 mmHg 60%
21:00 +21°C° 0 mm 2 mps 746 mmHg 62%
22:00 +20°C° 0 mm 2 mps 746 mmHg 64%
23:00 +20°C° 0 mm 2 mps 746 mmHg 66%

Tomorrow, 31 July, Saturday

Time Temperature Precipitation Wind Pressure Humidity
00:00 +19°C° 0 mm 2 mps 746 mmHg 69%
01:00 +19°C° 0 mm 2 mps 747 mmHg 71%
02:00 +18°C° 0 mm 2 mps 746 mmHg 72%
03:00 +19°C° 0 mm 1 mps 746 mmHg 72%
04:00 +19°C° 0 mm 1 mps 746 mmHg 73%
05:00 +20°C° 0 mm 1 mps 746 mmHg 69%
06:00 +22°C° 0 mm 1 mps 746 mmHg 64%
07:00 +23°C° 0 mm 1 mps 746 mmHg 59%
08:00 +25°C° 0 mm 1 mps 746 mmHg 54%
09:00 +27°C° 0 mm 2 mps 746 mmHg 49%
10:00 +28°C° 0 mm 2 mps 746 mmHg 44%
11:00 +28°C° 0 mm 3 mps 746 mmHg 46%
12:00 +28°C° 0 mm 4 mps 746 mmHg 48%
13:00 +28°C° 0 mm 4 mps 746 mmHg 49%
14:00 +25°C° 1.3 mm 3 mps 746 mmHg 63%
15:00 +22°C° 1.3 mm 3 mps 746 mmHg 77%
16:00 +19°C° 1.3 mm 2 mps 746 mmHg 90%
17:00 +20°C° 0 mm 2 mps 746 mmHg 89%
18:00 +20°C° 0 mm 3 mps 746 mmHg 89%
19:00 +20°C° 0 mm 3 mps 746 mmHg 88%
20:00 +19°C° 0 mm 3 mps 746 mmHg 89%
21:00 +19°C° 0 mm 3 mps 746 mmHg 91%
22:00 +18°C° 0 mm 4 mps 746 mmHg 93%
23:00 +18°C° 0 mm 3 mps 746 mmHg 92%

Day after tomorrow, 1 August, Sunday

Time Temperature Precipitation Wind Pressure Humidity
00:00 +18°C° 0 mm 3 mps 746 mmHg 91%
01:00 +18°C° 0 mm 3 mps 746 mmHg 90%
02:00 +17°C° 0 mm 3 mps 746 mmHg 88%
03:00 +17°C° 0 mm 2 mps 746 mmHg 85%
04:00 +16°C° 0 mm 2 mps 746 mmHg 83%
05:00 +18°C° 0 mm 2 mps 747 mmHg 76%
06:00 +19°C° 0 mm 2 mps 747 mmHg 69%
07:00 +22°C° 0 mm 1 mps 747 mmHg 61%
08:00 +23°C° 0 mm 1 mps 747 mmHg 56%
09:00 +24°C° 0 mm 1 mps 747 mmHg 51%
10:00 +26°C° 0 mm 1 mps 747 mmHg 46%
11:00 +25°C° 0.1 mm 3 mps 747 mmHg 52%
12:00 +23°C° 0.1 mm 4 mps 747 mmHg 58%
13:00 +22°C° 0.1 mm 5 mps 747 mmHg 64%
14:00 +20°C° 0.5 mm 5 mps 746 mmHg 73%
15:00 +19°C° 0.5 mm 5 mps 746 mmHg 81%
16:00 +16°C° 0.5 mm 6 mps 746 mmHg 90%
17:00 +15°C° 0.4 mm 5 mps 746 mmHg 90%
18:00 +16°C° 0.4 mm 3 mps 746 mmHg 91%
19:00 +15°C° 0.4 mm 2 mps 746 mmHg 91%
20:00 +15°C° 0 mm 2 mps 746 mmHg 93%
21:00 +14°C° 0 mm 1 mps 747 mmHg 94%
22:00 +14°C° 0 mm 1 mps 747 mmHg 96%
23:00 +14°C° 0 mm 1 mps 747 mmHg 95%

2 August, Monday

Time Temperature Precipitation Wind Pressure Humidity
00:00 +14°C° 0 mm 2 mps 746 mmHg 95%
01:00 +14°C° 0 mm 2 mps 746 mmHg 94%
02:00 +14°C° 0 mm 2 mps 746 mmHg 94%
03:00 +14°C° 0 mm 2 mps 746 mmHg 93%
04:00 +14°C° 0 mm 2 mps 746 mmHg 92%
05:00 +15°C° 0 mm 2 mps 746 mmHg 89%
06:00 +16°C° 0 mm 2 mps 746 mmHg 86%
07:00 +17°C° 0 mm 2 mps 747 mmHg 83%
08:00 +19°C° 0.4 mm 3 mps 747 mmHg 77%
09:00 +20°C° 0.4 mm 3 mps 747 mmHg 70%
10:00 +21°C° 0.4 mm 3 mps 747 mmHg 63%
11:00 +22°C° 0.2 mm 4 mps 747 mmHg 59%
12:00 +23°C° 0.2 mm 4 mps 747 mmHg 54%
13:00 +25°C° 0.2 mm 4 mps 747 mmHg 49%
14:00 +25°C° 0.2 mm 5 mps 747 mmHg 53%
15:00 +23°C° 0.2 mm 5 mps 747 mmHg 58%
16:00 +22°C° 0.2 mm 5 mps 747 mmHg 62%
17:00 +21°C° 0.1 mm 4 mps 747 mmHg 67%
18:00 +20°C° 0.1 mm 4 mps 748 mmHg 72%
19:00 +19°C° 0.1 mm 3 mps 748 mmHg 77%
20:00 +18°C° 0 mm 3 mps 748 mmHg 78%
21:00 +17°C° 0 mm 3 mps 749 mmHg 80%
22:00 +17°C° 0 mm 3 mps 749 mmHg 81%
23:00 +16°C° 0 mm 3 mps 749 mmHg 80%

3 August, Tuesday

Time Temperature Precipitation Wind Pressure Humidity
00:00 +14°C° 0 mm 3 mps 750 mmHg 79%
01:00 +14°C° 0 mm 3 mps 750 mmHg 78%
02:00 +13°C° 0 mm 3 mps 750 mmHg 79%
03:00 +12°C° 0 mm 3 mps 750 mmHg 79%
04:00 +12°C° 0 mm 3 mps 751 mmHg 79%
05:00 +13°C° 0 mm 3 mps 751 mmHg 73%
06:00 +16°C° 0 mm 3 mps 751 mmHg 67%
07:00 +18°C° 0 mm 3 mps 751 mmHg 62%
08:00 +19°C° 0 mm 4 mps 751 mmHg 55%
09:00 +21°C° 0 mm 4 mps 752 mmHg 49%
10:00 +22°C° 0 mm 4 mps 752 mmHg 42%
11:00 +23°C° 0 mm 4 mps 751 mmHg 42%
12:00 +23°C° 0 mm 4 mps 751 mmHg 41%
13:00 +25°C° 0 mm 4 mps 751 mmHg 40%
14:00 +25°C° 0 mm 4 mps 751 mmHg 42%
15:00 +24°C° 0 mm 3 mps 751 mmHg 44%
16:00 +24°C° 0 mm 3 mps 751 mmHg 46%
17:00 +23°C° 0 mm 2 mps 751 mmHg 49%
18:00 +21°C° 0 mm 2 mps 751 mmHg 53%
19:00 +21°C° 0 mm 1 mps 751 mmHg 57%
20:00 +20°C° 0 mm 1 mps 751 mmHg 59%
21:00 +18°C° 0 mm 2 mps 751 mmHg 62%
22:00 +17°C° 0 mm 2 mps 751 mmHg 64%
23:00 +17°C° 0 mm 2 mps 751 mmHg 66%

4 August, Wednesday

Time Temperature Precipitation Wind Pressure Humidity
00:00 +17°C° 0 mm 2 mps 751 mmHg 67%
01:00 +16°C° 0 mm 2 mps 751 mmHg 69%
02:00 +16°C° 0.1 mm 2 mps 751 mmHg 73%
03:00 +16°C° 0.1 mm 1 mps 751 mmHg 77%
04:00 +16°C° 0.1 mm 1 mps 751 mmHg 81%
05:00 +18°C° 0 mm 1 mps 751 mmHg 79%
06:00 +18°C° 0 mm 1 mps 751 mmHg 77%
07:00 +18°C° 0 mm 2 mps 751 mmHg 75%
08:00 +19°C° 0.1 mm 1 mps 751 mmHg 75%
09:00 +20°C° 0.1 mm 1 mps 751 mmHg 75%
10:00 +20°C° 0.1 mm 1 mps 751 mmHg 75%
11:00 +22°C° 0.1 mm 1 mps 750 mmHg 67%
12:00 +23°C° 0.1 mm 2 mps 750 mmHg 59%
13:00 +25°C° 0.1 mm 2 mps 750 mmHg 52%
14:00 +25°C° 0.5 mm 2 mps 750 mmHg 54%
15:00 +25°C° 0.5 mm 2 mps 750 mmHg 56%
16:00 +24°C° 0.5 mm 3 mps 750 mmHg 58%
17:00 +23°C° 0.3 mm 2 mps 749 mmHg 63%
18:00 +21°C° 0.3 mm 2 mps 749 mmHg 68%
19:00 +21°C° 0.3 mm 1 mps 749 mmHg 73%
20:00 +20°C° 0 mm 1 mps 749 mmHg 75%
21:00 +19°C° 0 mm 2 mps 750 mmHg 77%
22:00 +18°C° 0 mm 2 mps 750 mmHg 79%
23:00 +18°C° 0 mm 2 mps 750 mmHg 80%
Show more